Weather in Suslovo

Russia / Kemerovo Oblast     56°12′44″N   88°07′39″E
temp.,
°C
wind,
m/s
gust,
m/s
humid.,
%
clouds,
%
prec.,
mm/h
press.,
hPa
HPBL,
m
6 march, sat
sat601:00−5sw7159391 0.5 10151329
04:00−5sw91692100 1.4 10141372
07:00−6sw81692100 1.8 10161119
10:00−5sw81684100 0.3 10161123
13:00−3sw91778100 0.4 10141151
16:00−3sw81872100 0.0 10111316
19:00−3sw81975100 0.0 10101354
22:00−4sw91886100 0.1 10091142
7 march, sun
sun701:00−4sw91783100 0.1 10091015
04:00−4sw81592100 0.2 10081129
07:00−5wsw61485100 0.9 10101097
10:00−6wsw71475100 0.0 1012977
13:00−6wsw7127172 0.0 10141148
16:00−5wsw6107332 0.0 10161293
19:00−9wsw4128336 0.0 1018427
22:00−11wsw412880 0.0 1021350
8 march, mon
mon801:00−13wsw39910 0.0 1023183
04:00−16sw239233 0.0 102431
07:00−15sse238654 0.0 102432
10:00−10se498370 0.0 1020221
13:00−4se488582 0.0 1016302
16:00−1sse5987100 0.0 1011440
19:000s41481100 0.0 10071053
22:000sw81878100 0.0 10061151
9 march, tue
tue901:00−2wsw81885100 0.1 10081372
04:00−8w7158565 0.1 1013781
07:00−11wsw6148979 0.1 1017620
10:00−10wsw71387100 0.0 1021770
13:00−8wsw7118299 0.0 1023903
16:00−7wsw6117918 0.0 1023888
19:00−10sw388717 0.0 1023205
22:00−11ssw388896 0.0 1022174
10 march, wed
wed1001:00−11s358698 0.0 1020100
04:00−11s238699 0.0 101764
07:00−8s3109590 0.2 1016286
10:00−4sw5118882 0.3 1014890
13:00−1wsw6118189 0.3 1013954
16:00−1wsw588399 0.1 1013956
19:00−4wsw248899 0.1 101373
22:00−5se369299 0.0 1011113